• In Hungary
  • List of Countries
  • For 7 days
  • Water Temperature
  • Satellite Maps
  • Weather Map
  • News
  • Weather Widgets
  • user-avatar
    Login

    Hourly Weather Banbridge

    Today, 22 November, Wednesday

    Time Temperature Precipitation Wind Pressure Humidity
    00:00 +9°C° 0 mm 7 mps 738 mmHg 91%
    01:00 +9°C° 0.2 mm 6 mps 737 mmHg 92%
    02:00 +9°C° 0.2 mm 5 mps 737 mmHg 93%
    03:00 +8°C° 0.2 mm 4 mps 736 mmHg 94%
    04:00 +8°C° 1.5 mm 4 mps 735 mmHg 95%
    05:00 +9°C° 1.5 mm 3 mps 734 mmHg 96%
    06:00 +8°C° 1.5 mm 2 mps 734 mmHg 96%
    07:00 +8°C° 2.1 mm 2 mps 733 mmHg 96%
    08:00 +8°C° 2.1 mm 2 mps 732 mmHg 96%
    09:00 +8°C° 2.1 mm 2 mps 731 mmHg 97%
    10:00 +8°C° 1 mm 2 mps 731 mmHg 96%
    11:00 +8°C° 1 mm 2 mps 731 mmHg 95%
    12:00 +8°C° 1 mm 2 mps 730 mmHg 95%
    13:00 +7°C° 0.6 mm 2 mps 730 mmHg 94%
    14:00 +7°C° 0.6 mm 2 mps 729 mmHg 94%
    15:00 +7°C° 0.6 mm 2 mps 729 mmHg 94%
    16:00 +7°C° 0.8 mm 2 mps 728 mmHg 93%
    17:00 +6°C° 0.8 mm 2 mps 728 mmHg 93%
    18:00 +5°C° 0.8 mm 3 mps 727 mmHg 92%
    19:00 +5°C° 0.6 mm 2 mps 727 mmHg 92%
    20:00 +5°C° 0.6 mm 2 mps 727 mmHg 91%
    21:00 +5°C° 0.6 mm 2 mps 727 mmHg 90%
    22:00 +4°C° 0.2 mm 3 mps 726 mmHg 89%
    23:00 +3°C° 0.2 mm 4 mps 726 mmHg 88%

    Tomorrow, 23 November, Thursday

    Time Temperature Precipitation Wind Pressure Humidity
    00:00 +2°C° 0.2 mm 5 mps 726 mmHg 86%
    01:00 +2°C° 0 mm 6 mps 726 mmHg 86%
    02:00 +2°C° 0 mm 7 mps 725 mmHg 86%
    03:00 +1°C° 0 mm 8 mps 725 mmHg 86%
    04:00 +1°C° 0 mm 9 mps 726 mmHg 84%
    05:00 +2°C° 0 mm 10 mps 726 mmHg 82%
    06:00 +2°C° 0 mm 11 mps 727 mmHg 81%
    07:00 +2°C° 0 mm 11 mps 728 mmHg 80%
    08:00 +2°C° 0 mm 10 mps 730 mmHg 79%
    09:00 +2°C° 0 mm 10 mps 732 mmHg 79%
    10:00 +2°C° 0.1 mm 10 mps 733 mmHg 76%
    11:00 +2°C° 0.1 mm 9 mps 735 mmHg 74%
    12:00 +3°C° 0.1 mm 9 mps 737 mmHg 71%
    13:00 +2°C° 0.1 mm 8 mps 738 mmHg 71%
    14:00 +2°C° 0.1 mm 8 mps 739 mmHg 71%
    15:00 +3°C° 0.1 mm 7 mps 740 mmHg 72%
    16:00 +2°C° 0 mm 6 mps 741 mmHg 74%
    17:00 +2°C° 0 mm 6 mps 741 mmHg 76%
    18:00 +1°C° 0 mm 6 mps 742 mmHg 78%
    19:00 0°C° 0 mm 5 mps 743 mmHg 80%
    20:00 0°C° 0 mm 4 mps 743 mmHg 82%
    21:00 0°C° 0 mm 4 mps 743 mmHg 84%
    22:00 0°C° 0 mm 4 mps 744 mmHg 85%
    23:00 0°C° 0 mm 3 mps 744 mmHg 85%

    Day after tomorrow, 24 November, Friday

    Time Temperature Precipitation Wind Pressure Humidity
    00:00 0°C° 0 mm 3 mps 745 mmHg 86%
    01:00 0°C° 0 mm 3 mps 745 mmHg 86%
    02:00 0°C° 0 mm 3 mps 745 mmHg 86%
    03:00 0°C° 0 mm 3 mps 745 mmHg 86%
    04:00 0°C° 0 mm 3 mps 746 mmHg 86%
    05:00 0°C° 0 mm 3 mps 746 mmHg 87%
    06:00 0°C° 0 mm 3 mps 746 mmHg 87%
    07:00 0°C° 0 mm 3 mps 747 mmHg 87%
    08:00 -1°C° 0 mm 4 mps 747 mmHg 87%
    09:00 -1°C° 0 mm 4 mps 747 mmHg 87%
    10:00 0°C° 0 mm 4 mps 748 mmHg 80%
    11:00 +1°C° 0 mm 4 mps 748 mmHg 73%
    12:00 +2°C° 0 mm 5 mps 748 mmHg 66%
    13:00 +2°C° 0 mm 5 mps 748 mmHg 66%
    14:00 +2°C° 0 mm 5 mps 748 mmHg 66%
    15:00 +2°C° 0 mm 5 mps 748 mmHg 67%
    16:00 +1°C° 0 mm 5 mps 748 mmHg 69%
    17:00 0°C° 0 mm 5 mps 748 mmHg 72%
    18:00 -2°C° 0 mm 6 mps 748 mmHg 74%
    19:00 -2°C° 0 mm 6 mps 749 mmHg 76%
    20:00 -1°C° 0 mm 5 mps 749 mmHg 77%
    21:00 -1°C° 0 mm 5 mps 749 mmHg 78%
    22:00 -2°C° 0 mm 6 mps 749 mmHg 78%
    23:00 -2°C° 0 mm 6 mps 749 mmHg 77%

    25 November, Saturday

    Time Temperature Precipitation Wind Pressure Humidity
    00:00 -2°C° 0 mm 6 mps 749 mmHg 77%
    01:00 -2°C° 0 mm 7 mps 749 mmHg 76%
    02:00 -2°C° 0 mm 7 mps 749 mmHg 75%
    03:00 -2°C° 0 mm 7 mps 749 mmHg 74%
    04:00 -1°C° 0.1 mm 7 mps 749 mmHg 73%
    05:00 -1°C° 0.1 mm 8 mps 749 mmHg 73%
    06:00 0°C° 0.1 mm 8 mps 749 mmHg 72%
    07:00 0°C° 0.1 mm 8 mps 750 mmHg 72%
    08:00 -1°C° 0.1 mm 8 mps 750 mmHg 72%
    09:00 -1°C° 0.1 mm 8 mps 751 mmHg 72%
    10:00 0°C° 0 mm 8 mps 751 mmHg 70%
    11:00 +1°C° 0 mm 8 mps 752 mmHg 68%
    12:00 +1°C° 0 mm 8 mps 753 mmHg 66%
    13:00 +1°C° 0 mm 8 mps 753 mmHg 68%
    14:00 +1°C° 0 mm 8 mps 753 mmHg 69%
    15:00 +1°C° 0 mm 8 mps 753 mmHg 71%
    16:00 0°C° 0 mm 8 mps 753 mmHg 73%
    17:00 0°C° 0 mm 8 mps 753 mmHg 76%
    18:00 0°C° 0 mm 8 mps 754 mmHg 78%
    19:00 0°C° 0 mm 8 mps 754 mmHg 79%
    20:00 0°C° 0 mm 8 mps 755 mmHg 80%
    21:00 +1°C° 0 mm 8 mps 755 mmHg 81%
    22:00 +1°C° 0 mm 8 mps 755 mmHg 82%
    23:00 0°C° 0 mm 8 mps 756 mmHg 83%

    26 November, Sunday

    Time Temperature Precipitation Wind Pressure Humidity
    00:00 0°C° 0 mm 7 mps 756 mmHg 83%
    01:00 0°C° 0.1 mm 7 mps 756 mmHg 83%
    02:00 0°C° 0.1 mm 7 mps 756 mmHg 83%
    03:00 +1°C° 0.1 mm 6 mps 756 mmHg 83%
    04:00 +1°C° 0.1 mm 6 mps 757 mmHg 84%
    05:00 +1°C° 0.1 mm 6 mps 757 mmHg 85%
    06:00 -1°C° 0.1 mm 6 mps 757 mmHg 85%
    07:00 -1°C° 0.1 mm 6 mps 757 mmHg 86%
    08:00 +1°C° 0.1 mm 5 mps 758 mmHg 86%
    09:00 +1°C° 0.1 mm 5 mps 758 mmHg 87%
    10:00 +1°C° 0 mm 6 mps 758 mmHg 83%
    11:00 +2°C° 0 mm 6 mps 759 mmHg 79%
    12:00 +3°C° 0 mm 6 mps 759 mmHg 75%
    13:00 +3°C° 0.1 mm 6 mps 759 mmHg 76%
    14:00 +3°C° 0.1 mm 6 mps 759 mmHg 77%
    15:00 +3°C° 0.1 mm 6 mps 759 mmHg 77%
    16:00 +2°C° 0 mm 5 mps 759 mmHg 79%
    17:00 +2°C° 0 mm 5 mps 759 mmHg 82%
    18:00 +2°C° 0 mm 5 mps 759 mmHg 84%
    19:00 +1°C° 0 mm 4 mps 759 mmHg 86%
    20:00 0°C° 0 mm 4 mps 758 mmHg 89%
    21:00 0°C° 0 mm 4 mps 758 mmHg 92%
    22:00 0°C° 0.1 mm 5 mps 757 mmHg 90%
    23:00 +1°C° 0.1 mm 5 mps 756 mmHg 89%

    27 November, Monday

    Time Temperature Precipitation Wind Pressure Humidity
    00:00 +1°C° 0.1 mm 6 mps 755 mmHg 88%
    01:00 +2°C° 0.9 mm 7 mps 754 mmHg 88%
    02:00 +2°C° 0.9 mm 8 mps 752 mmHg 89%
    03:00 +2°C° 0.9 mm 9 mps 751 mmHg 89%
    04:00 +2°C° 0.4 mm 8 mps 750 mmHg 90%
    05:00 +3°C° 0.4 mm 7 mps 750 mmHg 90%
    06:00 +3°C° 0.4 mm 6 mps 749 mmHg 90%
    07:00 +3°C° 0.2 mm 5 mps 749 mmHg 90%
    08:00 +3°C° 0.2 mm 4 mps 748 mmHg 90%
    09:00 +2°C° 0.2 mm 3 mps 748 mmHg 89%
    10:00 +3°C° 0 mm 3 mps 748 mmHg 88%
    11:00 +3°C° 0 mm 3 mps 747 mmHg 86%
    12:00 +4°C° 0 mm 3 mps 747 mmHg 84%
    13:00 +4°C° 0.2 mm 3 mps 747 mmHg 86%
    14:00 +3°C° 0.2 mm 3 mps 746 mmHg 87%
    15:00 +3°C° 0.2 mm 3 mps 746 mmHg 88%
    16:00 +3°C° 0.2 mm 4 mps 745 mmHg 88%
    17:00 +1°C° 0.2 mm 4 mps 745 mmHg 88%
    18:00 0°C° 0.2 mm 4 mps 745 mmHg 88%
    19:00 +1°C° 0 mm 5 mps 745 mmHg 87%
    20:00 +1°C° 0 mm 6 mps 745 mmHg 86%
    21:00 0°C° 0 mm 7 mps 745 mmHg 85%
    22:00 0°C° 0.1 mm 7 mps 745 mmHg 83%
    23:00 0°C° 0.1 mm 8 mps 746 mmHg 82%
    Show more